• In Austria
  • List of Countries
  • For 7 days
  • Water Temperature
  • Satellite Maps
  • Weather Map
  • News
  • Weather Widgets
  • user-avatar
    Login

    Hourly Weather Río Gallegos

    Today, 20 October, Friday

    Time Temperature Precipitation Wind Pressure Humidity
    00:00 +1°C° 0 mm 4 mps 755 mmHg 66%
    01:00 +1°C° 0 mm 4 mps 755 mmHg 68%
    02:00 +1°C° 0 mm 4 mps 756 mmHg 68%
    03:00 0°C° 0 mm 4 mps 756 mmHg 69%
    04:00 0°C° 0 mm 4 mps 756 mmHg 69%
    05:00 +1°C° 0 mm 4 mps 757 mmHg 65%
    06:00 +1°C° 0 mm 4 mps 757 mmHg 62%
    07:00 +3°C° 0 mm 4 mps 757 mmHg 58%
    08:00 +4°C° 0 mm 4 mps 758 mmHg 56%
    09:00 +5°C° 0 mm 4 mps 758 mmHg 54%
    10:00 +6°C° 0 mm 4 mps 758 mmHg 51%
    11:00 +7°C° 0 mm 4 mps 758 mmHg 51%
    12:00 +7°C° 0 mm 4 mps 758 mmHg 51%
    13:00 +8°C° 0 mm 4 mps 758 mmHg 51%
    14:00 +8°C° 0 mm 4 mps 758 mmHg 51%
    15:00 +8°C° 0 mm 4 mps 758 mmHg 51%
    16:00 +8°C° 0 mm 5 mps 759 mmHg 51%
    17:00 +8°C° 0 mm 4 mps 759 mmHg 53%
    18:00 +7°C° 0 mm 4 mps 760 mmHg 54%
    19:00 +6°C° 0 mm 4 mps 760 mmHg 56%
    20:00 +7°C° 0 mm 3 mps 760 mmHg 58%
    21:00 +5°C° 0 mm 3 mps 761 mmHg 59%
    22:00 +5°C° 0 mm 3 mps 761 mmHg 61%
    23:00 +4°C° 0 mm 3 mps 761 mmHg 63%

    Tomorrow, 21 October, Saturday

    Time Temperature Precipitation Wind Pressure Humidity
    00:00 +4°C° 0 mm 3 mps 762 mmHg 64%
    01:00 +4°C° 0 mm 2 mps 762 mmHg 66%
    02:00 +3°C° 0 mm 3 mps 762 mmHg 67%
    03:00 +3°C° 0 mm 3 mps 762 mmHg 69%
    04:00 +2°C° 0 mm 3 mps 762 mmHg 70%
    05:00 +4°C° 0 mm 3 mps 762 mmHg 65%
    06:00 +5°C° 0 mm 4 mps 762 mmHg 60%
    07:00 +6°C° 0 mm 4 mps 762 mmHg 55%
    08:00 +8°C° 0 mm 5 mps 762 mmHg 53%
    09:00 +9°C° 0 mm 6 mps 762 mmHg 51%
    10:00 +10°C° 0 mm 7 mps 761 mmHg 49%
    11:00 +10°C° 0 mm 7 mps 760 mmHg 50%
    12:00 +10°C° 0 mm 8 mps 759 mmHg 52%
    13:00 +11°C° 0 mm 9 mps 758 mmHg 54%
    14:00 +10°C° 0 mm 9 mps 757 mmHg 55%
    15:00 +9°C° 0 mm 10 mps 756 mmHg 55%
    16:00 +9°C° 0 mm 10 mps 755 mmHg 56%
    17:00 +10°C° 0 mm 9 mps 754 mmHg 55%
    18:00 +10°C° 0 mm 8 mps 753 mmHg 54%
    19:00 +10°C° 0 mm 8 mps 752 mmHg 53%
    20:00 +10°C° 0 mm 8 mps 751 mmHg 52%
    21:00 +10°C° 0 mm 8 mps 750 mmHg 52%
    22:00 +10°C° 0 mm 8 mps 750 mmHg 51%
    23:00 +10°C° 0 mm 7 mps 749 mmHg 53%

    Day after tomorrow, 22 October, Sunday

    Time Temperature Precipitation Wind Pressure Humidity
    00:00 +10°C° 0 mm 6 mps 749 mmHg 54%
    01:00 +9°C° 0 mm 5 mps 748 mmHg 56%
    02:00 +9°C° 0 mm 5 mps 748 mmHg 57%
    03:00 +9°C° 0 mm 5 mps 747 mmHg 58%
    04:00 +9°C° 0 mm 5 mps 747 mmHg 58%
    05:00 +10°C° 0 mm 5 mps 746 mmHg 57%
    06:00 +12°C° 0 mm 5 mps 746 mmHg 55%
    07:00 +13°C° 0 mm 6 mps 745 mmHg 54%
    08:00 +13°C° 0.1 mm 6 mps 744 mmHg 54%
    09:00 +14°C° 0.1 mm 5 mps 743 mmHg 54%
    10:00 +14°C° 0.1 mm 5 mps 742 mmHg 54%
    11:00 +16°C° 0 mm 6 mps 742 mmHg 49%
    12:00 +17°C° 0 mm 7 mps 741 mmHg 44%
    13:00 +18°C° 0 mm 8 mps 740 mmHg 40%
    14:00 +17°C° 0 mm 9 mps 740 mmHg 38%
    15:00 +17°C° 0 mm 9 mps 740 mmHg 36%
    16:00 +16°C° 0 mm 10 mps 739 mmHg 34%
    17:00 +15°C° 0 mm 9 mps 739 mmHg 38%
    18:00 +12°C° 0 mm 7 mps 740 mmHg 41%
    19:00 +11°C° 0 mm 6 mps 740 mmHg 44%
    20:00 +10°C° 0 mm 7 mps 740 mmHg 43%
    21:00 +10°C° 0 mm 7 mps 740 mmHg 42%
    22:00 +10°C° 0 mm 8 mps 740 mmHg 41%
    23:00 +9°C° 0 mm 8 mps 740 mmHg 43%

    23 October, Monday

    Time Temperature Precipitation Wind Pressure Humidity
    00:00 +9°C° 0 mm 7 mps 740 mmHg 45%
    01:00 +8°C° 0 mm 7 mps 740 mmHg 47%
    02:00 +8°C° 0 mm 7 mps 740 mmHg 51%
    03:00 +6°C° 0 mm 7 mps 741 mmHg 54%
    04:00 +6°C° 0 mm 7 mps 741 mmHg 58%
    05:00 +6°C° 0 mm 9 mps 742 mmHg 56%
    06:00 +6°C° 0 mm 11 mps 742 mmHg 55%
    07:00 +5°C° 0 mm 12 mps 742 mmHg 53%
    08:00 +7°C° 0 mm 13 mps 743 mmHg 48%
    09:00 +8°C° 0 mm 14 mps 743 mmHg 43%
    10:00 +8°C° 0 mm 14 mps 743 mmHg 38%
    11:00 +9°C° 0 mm 14 mps 743 mmHg 38%
    12:00 +9°C° 0 mm 14 mps 743 mmHg 38%
    13:00 +9°C° 0 mm 13 mps 744 mmHg 38%
    14:00 +8°C° 0 mm 13 mps 744 mmHg 39%
    15:00 +8°C° 0 mm 13 mps 745 mmHg 40%
    16:00 +8°C° 0 mm 13 mps 745 mmHg 41%
    17:00 +7°C° 0 mm 12 mps 746 mmHg 44%
    18:00 +6°C° 0 mm 11 mps 747 mmHg 48%
    19:00 +5°C° 0 mm 10 mps 748 mmHg 51%
    20:00 +5°C° 0 mm 10 mps 748 mmHg 54%
    21:00 +3°C° 0 mm 10 mps 749 mmHg 56%
    22:00 +2°C° 0 mm 10 mps 749 mmHg 59%
    23:00 +2°C° 0 mm 10 mps 750 mmHg 58%

    24 October, Tuesday

    Time Temperature Precipitation Wind Pressure Humidity
    00:00 +2°C° 0 mm 10 mps 750 mmHg 57%
    01:00 +1°C° 0 mm 11 mps 751 mmHg 57%
    02:00 +1°C° 0 mm 10 mps 751 mmHg 57%
    03:00 +1°C° 0 mm 10 mps 751 mmHg 57%
    04:00 +1°C° 0 mm 9 mps 752 mmHg 57%
    05:00 +2°C° 0 mm 9 mps 752 mmHg 54%
    06:00 +3°C° 0 mm 9 mps 752 mmHg 50%
    07:00 +5°C° 0 mm 9 mps 752 mmHg 46%
    08:00 +6°C° 0 mm 9 mps 752 mmHg 43%
    09:00 +8°C° 0 mm 9 mps 751 mmHg 40%
    10:00 +10°C° 0 mm 9 mps 751 mmHg 37%
    11:00 +11°C° 0.1 mm 9 mps 750 mmHg 39%
    12:00 +11°C° 0.1 mm 9 mps 749 mmHg 40%
    13:00 +12°C° 0.1 mm 9 mps 748 mmHg 42%
    14:00 +12°C° 0.2 mm 9 mps 748 mmHg 46%
    15:00 +12°C° 0.2 mm 9 mps 748 mmHg 49%
    16:00 +11°C° 0.2 mm 8 mps 747 mmHg 52%
    17:00 +11°C° 0 mm 8 mps 748 mmHg 54%
    18:00 +10°C° 0 mm 7 mps 748 mmHg 55%
    19:00 +9°C° 0 mm 7 mps 748 mmHg 56%
    20:00 +9°C° 0 mm 7 mps 748 mmHg 58%
    21:00 +8°C° 0 mm 7 mps 749 mmHg 59%
    22:00 +8°C° 0 mm 7 mps 749 mmHg 61%
    23:00 +6°C° 0 mm 7 mps 749 mmHg 62%

    25 October, Wednesday

    Time Temperature Precipitation Wind Pressure Humidity
    00:00 +6°C° 0 mm 8 mps 749 mmHg 64%
    01:00 +5°C° 0 mm 8 mps 750 mmHg 65%
    02:00 +5°C° 0 mm 8 mps 750 mmHg 66%
    03:00 +5°C° 0 mm 7 mps 750 mmHg 66%
    04:00 +5°C° 0 mm 7 mps 751 mmHg 67%
    05:00 +6°C° 0 mm 8 mps 751 mmHg 64%
    06:00 +7°C° 0 mm 9 mps 751 mmHg 61%
    07:00 +8°C° 0 mm 10 mps 752 mmHg 58%
    08:00 +9°C° 0 mm 10 mps 752 mmHg 55%
    09:00 +11°C° 0 mm 11 mps 752 mmHg 52%
    10:00 +12°C° 0 mm 12 mps 752 mmHg 49%
    11:00 +12°C° 0 mm 12 mps 752 mmHg 48%
    12:00 +13°C° 0 mm 12 mps 752 mmHg 47%
    13:00 +13°C° 0 mm 12 mps 752 mmHg 46%
    14:00 +12°C° 0 mm 12 mps 752 mmHg 47%
    15:00 +12°C° 0 mm 12 mps 752 mmHg 49%
    16:00 +12°C° 0 mm 12 mps 752 mmHg 50%
    17:00 +11°C° 0 mm 11 mps 753 mmHg 54%
    18:00 +9°C° 0 mm 10 mps 753 mmHg 57%
    19:00 +8°C° 0 mm 9 mps 754 mmHg 61%
    20:00 +7°C° 0 mm 9 mps 754 mmHg 64%
    21:00 +7°C° 0 mm 8 mps 754 mmHg 67%
    22:00 +6°C° 0 mm 8 mps 754 mmHg 70%
    23:00 +6°C° 0 mm 7 mps 754 mmHg 71%
    Show more